铱星星座 28星 (IRIDIUM 28)

导读 | 星芒AI

IRIDIUM 28 是 Iridium 卫星星座计划中的一颗低轨通信卫星,由美国 Iridium 公司运营。该卫星属于第二代 Iridium 网络(Iridium NEXT),于 2017 年发射,旨在提供全球范围内的语音和数据通信服务。它运行在约 780 公里的极地轨道上,与其他 Iridium 卫星共同构建无缝覆盖网络,支持航空、海事、政府及应急通信等应用。IRIDIUM 28 配备先进通信技术,提升了信号质量和系统可靠性。

基本信息
目录编号:
24948
目录名称:
IRIDIUM 28
国际标识:
1997-051E
轨道中心:
EARTH
卫星名称:
铱星星座 28星
卫星全名:
铱星星座 28星 (IRIDIUM 28)
卫星状态:
在轨 (已飞行10272 天)
发射日期:
1997-09-14 UTC
国别 :
美国 (US)
星等 :
--
轨道信息
数据来源 国际轨道数据 AOE轨道数据
星历时间 2025-10-28T19:46:28+0800
19小时前
查看轨道信息
2025-10-27T15:00:00+0800
2天前
查看轨道信息
半长轴 7144.907km 7144.91km
偏心率 0.0002179 0.0001992
轨道倾角 86.392° 86.394°
近地点辐角 76.529° 82.752°
升交点赤经 85.382° 85.886°
平近点角 283.615° 196.816°
近地点 765.215km 765.351km
远地点 768.329km 768.199km
周期 100.174分钟 100.174分钟
每日圈数 14.375004 14.374995
详细信息
平衡模式:
三轴稳定
覆盖范围:
全球
运营商:
铱星通信公司
运营商所在国:
美国
使用方式:
暂无
卫星简介
铱星(Iridium)是由共66个运作中的通信卫星组成的卫星通信系统。这个系统原本规划77个通信卫星,所以用原子序数为77的铱元素来命名。铱卫星允许人们使用手持型电子设备进行全球性的语音及数据通讯。该卫星已退役。
2D轨道图
3D轨道图
轨道高度分析图
轨道倾角分析图
轨道综合分析图
查看轨道综合分析图